Bellaire, MI

1:23 PM EDT on October 20, 2017 (GMT -0400)
Antrim County

Weather History for KACB - August, 2013

Change the Weather History Date:

Wednesday, August 21, 2013

  Actual Average (KCVX) Record (KCVX)
Temperature  
Mean Temperature 78 °F -  
Max Temperature 91 °F 68 °F 87 °F (2013)
Min Temperature 65 °F 50 °F 42 °F (2004)
Cooling Degree Days 13    
Growing Degree Days 28 (Base 50)    
Moisture  
Dew Point 64 °F    
Average Humidity 61    
Maximum Humidity 91    
Minimum Humidity 41    
Precipitation  
Precipitation 0.00 in - - ()
Sea Level Pressure  
Sea Level Pressure 29.97 in    
Wind  
Wind Speed 4 mph (SSW)    
Max Wind Speed 16 mph    
Max Gust Speed 29 mph    
Visibility 10 miles    
Events Rain    
Averages and records for this station are not official NWS values.
T = Trace of Precipitation, MM = Missing Value Source: NWS Daily Summary

Daily Weather History Graph

Daily Weather History Graph

Search for Another Location

Airport or City:

Trip Planner

Search our weather history database for the weather conditions in past years. The results will help you decide how hot, cold, wet, or windy it might be!

Date:

Astronomy

Aug. 21, 2013 Rise Set
Actual Time 6:49 AM EDT 8:36 PM EDT
Civil Twilight 6:18 AM EDT 9:08 PM EDT
Nautical Twilight 5:40 AM EDT 9:46 PM EDT
Astronomical Twilight 4:58 AM EDT 10:27 PM EDT
Moon 8:39 PM EDT (8/21) 7:33 AM EDT (8/21)
Length of Visible Light 14h 49m
Length of Day
13h 46m
Full, 100% of the Moon is Illuminated
Aug 21
Full
Aug 28
Last Quarter
Sep 5
New
Sep 12
First Quarter
Sep 19
Full

Hourly Weather History & Observations

Time (EDT) Temp. Heat Index Dew Point Humidity Pressure Visibility Wind Dir Wind Speed Gust Speed Precip Events Conditions
12:14 AM 65.5 °F - 61.5 °F 87% 30.03 in 10.0 mi Calm Calm - N/A   Clear
12:34 AM 68.0 °F - 61.5 °F 80% 30.03 in 10.0 mi Calm Calm - N/A   Clear
12:53 AM 68.4 °F - 60.8 °F 77% 30.02 in 10.0 mi Calm Calm - N/A   Clear
1:14 AM 71.4 °F - 61.7 °F 71% 30.03 in 10.0 mi SW 3.5 mph - N/A   Clear
1:34 AM 72.0 °F - 61.7 °F 70% 30.03 in 10.0 mi SSW 3.5 mph - N/A   Clear
1:53 AM 72.0 °F - 61.7 °F 70% 30.03 in 10.0 mi Calm Calm - N/A   Clear
2:14 AM 71.1 °F - 61.3 °F 71% 30.02 in 10.0 mi Calm Calm - N/A   Clear
2:34 AM 71.2 °F - 61.3 °F 71% 30.02 in 10.0 mi SSW 3.5 mph - N/A   Clear
2:54 AM 70.9 °F - 61.2 °F 71% 30.02 in 10.0 mi Calm Calm - N/A   Clear
3:14 AM 70.7 °F - 61.2 °F 72% 30.01 in 10.0 mi Calm Calm - N/A   Clear
3:33 AM 70.7 °F - 61.3 °F 72% 30.01 in 10.0 mi SW 3.5 mph - N/A   Clear
3:54 AM 70.9 °F - 61.3 °F 72% 30.01 in 10.0 mi SSW 3.5 mph - N/A   Clear
4:14 AM 71.2 °F - 61.7 °F 72% 30.01 in 10.0 mi Calm Calm - N/A   Clear
4:33 AM 70.9 °F - 61.9 °F 73% 30.01 in 10.0 mi SSW 3.5 mph - N/A   Clear
4:54 AM 71.4 °F - 62.4 °F 73% 30.01 in 10.0 mi Calm Calm - N/A   Clear
5:14 AM 71.1 °F - 62.6 °F 75% 30.01 in 10.0 mi SSW 3.5 mph - N/A   Clear
5:33 AM 71.1 °F - 62.6 °F 75% 30.01 in 10.0 mi Calm Calm - N/A   Clear
5:54 AM 70.7 °F - 62.8 °F 76% 30.01 in 10.0 mi Calm Calm - N/A   Clear
6:14 AM 69.8 °F - 62.8 °F 78% 30.02 in 10.0 mi Calm Calm - N/A   Clear
6:34 AM 69.1 °F - 62.6 °F 80% 30.01 in 10.0 mi South 4.6 mph - N/A   Clear
6:54 AM 69.1 °F - 62.8 °F 80% 30.01 in 10.0 mi South 3.5 mph - N/A   Scattered Clouds
7:14 AM 69.8 °F - 62.8 °F 78% 30.02 in 10.0 mi Calm Calm - N/A   Scattered Clouds
7:34 AM 69.8 °F - 63.1 °F 79% 30.01 in 10.0 mi Calm Calm - N/A   Clear
7:54 AM 71.1 °F - 63.5 °F 77% 30.01 in 10.0 mi South 4.6 mph - N/A   Clear
8:14 AM 72.5 °F - 63.7 °F 74% 30.01 in 10.0 mi South 4.6 mph - N/A   Clear
8:34 AM 73.4 °F - 63.7 °F 71% 30.01 in 10.0 mi SSW 5.8 mph - N/A   Clear
8:54 AM 74.5 °F - 64.2 °F 70% 30.02 in 10.0 mi SSW 4.6 mph - N/A   Scattered Clouds
9:13 AM 75.0 °F - 64.4 °F 69% 30.02 in 10.0 mi SSW 3.5 mph - N/A   Scattered Clouds
9:34 AM 76.6 °F - 64.6 °F 66% 30.02 in 10.0 mi South 6.9 mph - N/A   Clear
9:54 AM 78.1 °F - 65.3 °F 65% 30.01 in 10.0 mi South 5.8 mph - N/A   Clear
10:13 AM 79.5 °F - 65.1 °F 61% 30.00 in 10.0 mi South 8.1 mph - N/A   Clear
10:34 AM 81.0 °F 82.7 °F 64.8 °F 58% 30.01 in 10.0 mi SSW 6.9 mph - N/A   Clear
10:54 AM 81.7 °F 83.3 °F 64.4 °F 56% 30.00 in 10.0 mi SW 11.5 mph 23.0 mph N/A   Mostly Cloudy
11:14 AM 82.0 °F 83.6 °F 64.6 °F 55% 30.00 in 10.0 mi North - - N/A   Mostly Cloudy
11:34 AM 82.0 °F 83.8 °F 64.8 °F 56% 29.99 in 10.0 mi SSW 5.8 mph 17.3 mph N/A   Mostly Cloudy
11:54 AM 84.2 °F 85.8 °F 64.6 °F 52% 29.99 in 10.0 mi South 11.5 mph 16.1 mph N/A   Scattered Clouds
12:02 PM 84.6 °F 86.1 °F 64.6 °F 51% 29.99 in 10.0 mi SSW 8.1 mph 18.4 mph N/A   Clear
1:11 PM 86.0 °F 87.3 °F 64.4 °F 48% 29.98 in 10.0 mi SSW 12.7 mph 23.0 mph N/A   Clear
1:22 PM 86.0 °F 87.3 °F 64.4 °F 48% 29.98 in 10.0 mi WSW 11.5 mph 21.9 mph N/A   Clear
1:37 PM 87.8 °F 89.4 °F 64.4 °F 46% 29.96 in 10.0 mi SSW 10.4 mph 20.7 mph N/A   Clear
1:56 PM 87.8 °F 90.4 °F 66.2 °F 49% 29.96 in 10.0 mi SSW 11.5 mph 20.7 mph N/A   Clear
2:18 PM 89.6 °F 92.2 °F 66.2 °F 46% 29.95 in 10.0 mi SSW 9.2 mph 17.3 mph N/A   Clear
2:37 PM 89.6 °F 91.1 °F 64.4 °F 43% 29.94 in 10.0 mi SSW 15.0 mph 21.9 mph N/A   Clear
2:57 PM 89.6 °F 91.1 °F 64.4 °F 43% 29.94 in 10.0 mi SSW 10.4 mph 24.2 mph N/A   Scattered Clouds
3:16 PM 89.6 °F 91.1 °F 64.4 °F 43% 29.93 in 10.0 mi SW 11.5 mph 21.9 mph N/A   Scattered Clouds
3:36 PM 89.6 °F 91.1 °F 64.4 °F 43% 29.93 in 10.0 mi SW 12.7 mph 19.6 mph N/A   Scattered Clouds
3:56 PM 91.4 °F 93.2 °F 64.4 °F 41% 29.92 in 10.0 mi SW 8.1 mph 21.9 mph N/A   Clear
4:18 PM 89.6 °F 91.1 °F 64.4 °F 43% 29.92 in 10.0 mi WSW 11.5 mph 18.4 mph N/A   Clear
4:35 PM 90.7 °F 92.1 °F 64.2 °F 41% 29.91 in 10.0 mi SW 9.2 mph 20.7 mph N/A   Clear
4:54 PM 90.7 °F 92.1 °F 63.9 °F 41% 29.91 in 10.0 mi SW 12.7 mph 23.0 mph N/A   Clear
5:14 PM 90.5 °F 91.8 °F 63.5 °F 41% 29.90 in 10.0 mi SW 12.7 mph 19.6 mph N/A   Scattered Clouds
5:34 PM 89.6 °F 90.8 °F 63.9 °F 42% 29.89 in 10.0 mi SSW 10.4 mph 21.9 mph N/A   Scattered Clouds
5:54 PM 89.6 °F 90.8 °F 63.9 °F 42% 29.90 in 10.0 mi SSW 12.7 mph 20.7 mph N/A   Scattered Clouds
6:14 PM 89.4 °F 90.5 °F 63.7 °F 42% 29.90 in 10.0 mi South 8.1 mph - N/A   Scattered Clouds
6:34 PM 88.5 °F 89.5 °F 63.1 °F 43% 29.89 in 10.0 mi SW 8.1 mph 17.3 mph N/A   Clear
6:54 PM 87.4 °F 88.2 °F 63.0 °F 44% 29.89 in 10.0 mi SSW 8.1 mph - N/A   Clear
7:14 PM 86.2 °F 87.1 °F 63.1 °F 46% 29.90 in 10.0 mi SSW 4.6 mph - N/A   Scattered Clouds
7:34 PM 85.6 °F 86.8 °F 63.7 °F 48% 29.90 in 10.0 mi Calm Calm - N/A   Mostly Cloudy
7:54 PM 84.7 °F 85.9 °F 63.7 °F 49% 29.90 in 10.0 mi SSW 4.6 mph - N/A   Mostly Cloudy
8:15 PM 84.2 °F 85.4 °F 63.7 °F 50% 29.91 in 10.0 mi SW 5.8 mph - N/A   Mostly Cloudy
8:34 PM 83.7 °F 84.9 °F 63.9 °F 51% 29.92 in 10.0 mi WSW 4.6 mph - N/A   Overcast
8:54 PM 82.9 °F 84.4 °F 64.4 °F 53% 29.92 in 10.0 mi SSW 5.8 mph - N/A   Overcast
9:15 PM 82.8 °F 84.3 °F 64.4 °F 54% 29.92 in 10.0 mi South 4.6 mph - N/A   Overcast
9:34 PM 81.9 °F 83.4 °F 64.4 °F 55% 29.93 in 10.0 mi SSW 4.6 mph - N/A   Overcast
9:54 PM 81.9 °F 83.4 °F 64.4 °F 55% 29.94 in 10.0 mi Calm Calm - N/A   Overcast
10:14 PM 81.7 °F 83.3 °F 64.4 °F 56% 29.94 in 10.0 mi SSW 5.8 mph - N/A   Overcast
10:34 PM 80.4 °F 82.0 °F 64.0 °F 57% 30.00 in 10.0 mi West 16.1 mph 28.8 mph N/A   Mostly Cloudy
10:54 PM 73.9 °F - 65.1 °F 74% 29.99 in 10.0 mi WNW 8.1 mph - N/A Rain Light Rain
11:15 PM 71.8 °F - 65.5 °F 80% 29.98 in 10.0 mi Calm Calm - N/A Rain Light Rain
11:34 PM 70.9 °F - 66.7 °F 87% 29.99 in 10.0 mi SW 3.5 mph - N/A Rain Rain
11:54 PM 69.8 °F - 67.1 °F 91% 30.00 in 7.0 mi SW 4.6 mph - N/A Rain Heavy Rain